Regional Weather Roundup
Issued by NWS

Home | Current Version | Previous Version | Graphics & Text | Print | Product List | Glossary On
Versions: 1 2 3 4 5 6 7 8 9 10 11 12 13 14 15 16 17 18 19 20 21 22 23 24 25 26 27 28 29 30 31 32 33 34 35 36 37 38 39 40 41 42 43 44 45 46 47 48 49 50
000
ASUS43 KMKX 221611
RWRWI

WISCONSIN REGIONAL WEATHER ROUNDUP
NATIONAL WEATHER SERVICE MILWAUKEE/SULLIVAN WI
1100 AM CDT FRI AUG 22 2014

NOTE: "FAIR" INDICATES FEW OR NO CLOUDS BELOW 12,000 FEET WITH NO
SIGNIFICANT WEATHER AND/OR OBSTRUCTIONS TO VISIBILITY.

WIZ001-002-006>008-014>016-023>028-221700-
NORTHWEST WISCONSIN

CITY           SKY/WX    TMP DP  RH WIND       PRES   REMARKS
SUPERIOR ARPT  FOG       60  60  99 NE9       29.99R VSB 1
ASHLAND        CLOUDY    65  62  90 NE9       29.98R FOG
HAYWARD        CLOUDY    70  68  93 N3        29.96R FOG
SIREN          CLOUDY    66  64  96 N5        29.97R FOG
RICE LAKE      CLOUDY    72  70  94 CALM      29.96R FOG
LADYSMITH      CLOUDY    71  70  96 CALM      29.97R FOG
EAU CLAIRE     CLOUDY    76  73  91 SW5       29.93R
MENOMONIE      CLOUDY    77  71  81 W3        29.93S
NEW RICHMOND   CLOUDY    72  69  90 N5        29.96R
OSCEOLA        CLOUDY    69  69  99 N3        29.99R
$$

WIZ003>005-009-010-017-018-221700-
NORTH CENTRAL WISCONSIN

CITY           SKY/WX    TMP DP  RH WIND       PRES   REMARKS
WOODRUFF       CLOUDY    71  68  93 SE5       29.98S FOG
RHINELANDER    LGT RAIN  66  65  96 E5        29.99S FOG
EAGLE RIVER    CLOUDY    69  66  91 SE3       29.99S
LAND O LAKES   CLOUDY    68  66  94 SE3       30.00S FOG
PHILLIPS       CLOUDY    69  67  95 CALM      29.96S
TOMAHAWK       CLOUDY    69  67  92 SE5       29.97S
MEDFORD        CLOUDY    69  69 100 SE5       29.96S FOG
MERRILL        CLOUDY    67  67 100 E5        29.97R FOG
$$

WIZ029-030-035-036-043>047-221700-
CENTRAL WISCONSIN

CITY           SKY/WX    TMP DP  RH WIND       PRES   REMARKS
WAUSAU         CLOUDY    70  68  93 SE7       29.95R
MOSINEE        CLOUDY    70  70 100 SE5       29.97R FOG
MARSHFIELD     CLOUDY    73  72  96 S7        29.95S FOG
STEVENS POINT  CLOUDY    71  69  92 SE5       29.97R FOG
WAUPACA        CLOUDY    74  73  94 S6        29.96R FOG
WAUTOMA        PTSUNNY   80  75  84 VRB3      29.96S HX  85
WISC RAPIDS    CLOUDY    78  72  81 S7        29.96R HX  80
CAMP DOUGLAS   CLOUDY    77  77 100 S6        29.95R
$$

WIZ011>013-019>022-031-037>040-048>050-221700-
NORTHEAST WISCONSIN

CITY           SKY/WX    TMP DP  RH WIND       PRES   REMARKS
ANTIGO         HVY RAIN  66  66 100 SE6       29.98S VSB 1
STURGEON BAY   CLOUDY    70  66  88 E6        29.98S
GREEN BAY      CLOUDY    75  70  84 VRB3      29.96R
MANITOWOC      FOG       69  69 100 SE7       29.97S VSB 1/2
APPLETON       PTSUNNY   73  72  94 VRB6      29.97R FOG
CLINTONVILLE   CLOUDY    72  68  88 SE5       29.96R FOG
OSHKOSH        CLOUDY    77  72  84 S3        29.96R
$$

WIZ032>034-041-042-053>061-221700-
SOUTHWEST WISCONSIN

CITY           SKY/WX    TMP DP  RH WIND       PRES   REMARKS
LA CROSSE      CLOUDY    78  73  84 SW3       29.93R HX  81
SPARTA         CLOUDY    76  72  87 S3        29.95R FOG
VIROQUA        CLOUDY    77  77 100 S5        29.97R
BOSCOBEL       PTSUNNY   83  74  74 CALM      29.94S HX  89
PRAIRIE DU CHI CLOUDY    79  73  81 CALM      29.94R HX  83
PLATTEVILLE    PTSUNNY   80  76  90 CALM      29.97R HX  85
$$

WIZ056-057-062-063-064-067-068-221700-
SOUTH CENTRAL WISCONSIN

CITY           SKY/WX    TMP DP  RH WIND       PRES   REMARKS
BARABOO/DELLS  MOSUNNY   83  71  67 S7        29.95S HX  87
LONE ROCK      MOSUNNY   86  75  69 SE3       29.94S HX  95
WATERTOWN      PTSUNNY   78  76  91 SW3       29.96S HX  82
MADISON        PTSUNNY   79  73  82 S5        29.95S HX  82
MIDDLETON      PTSUNNY   82  76  82 CALM      29.97R HX  88
MONROE         CLOUDY    77  73  88 S10       29.97R FOG
JANESVILLE     CLOUDY    81  75  83 S6        29.95R HX  86
$$

WIZ051-052-058>065-066-070>072-221700-
SOUTHEAST WISCONSIN

CITY           SKY/WX    TMP DP  RH WIND       PRES   REMARKS
MILWAUKEE      CLOUDY    72  69  90 E6        29.98R FOG
WAUKESHA       MOSUNNY   79  72  78 CALM      29.97R HX  82
MILWAUKEE/TIMM PTSUNNY   75  68  78 E6        29.98R
RACINE         CLOUDY    73  69  87 E7        29.98S
BURLINGTON     PTSUNNY   76  73  88 CALM      29.96S
KENOSHA        CLOUDY    76  73  91 E8        29.97S
FOND DU LAC    SUNNY     79  71  76 SE5       29.96S HX  82
SHEBOYGAN      PTSUNNY   76  72  87 S7        29.97S FOG
WEST BEND      CLOUDY    72  72 100 SE3       29.97S FOG
JUNEAU         PTSUNNY   76  52  42 SW7       29.97S
$$

LSZ147-162-221700-
LAKE SUPERIOR

STATION/POSITION TIME  TEMP    WIND        PRES    WAVE
                       AIR SEA DIR/SP/G            HT/PER
                 (UTC) (F)     (DEG/KT/KT) (MB)    (FT/S)
W MID LAKE BUOY  1550   57 58   30/ 12/ 14 1014.9R   2/ 4
DEVILS ISLAND    1600   59      70/  9/ 11 1015.5R
PORT WING        1500   58      40/  9/ 11 1015.2R
SAXON HARBOR     1500   64        CALM     1014.6R
$$

LMZ867-665-643>646-221700-
LAKE MICHIGAN

STATION/POSITION TIME  TEMP    WIND        PRES    WAVE
                       AIR SEA DIR/SP/G            HT/PER
                 (UTC) (F)     (DEG/KT/KT) (MB)    (FT/S)
N MID LAKE BUOY  1550   66 65  170/  4/  4 1014.8R   0
NORTHPORT PIER   1500   66     130/  3/  3 1015.2R
SISTER BAY       1426   68     150/  7/  9   N/A
KEWAUNEE LAKESHO 1500   67      80/  2/  3 1014.0R
SHEBOYGAN LAKESH 1600   68 63  160/  8/  9 1014.7F
ATWATER BUOY     1600   69     150/  6/  6 1016.0R
MILWAUKEE LAKESH 1500   69      80/  7/  8   N/A
S MID LAKE BUOY  1550   70 69  170/  4/  6 1014.8R   0
KENOSHA   LAKESH 1600   71      70/  3/  5 1014.6R
$$

TC  - TEMPERATURE IN CELSIUS
VSB - VISIBILITY IN STATUTE MILES
WCI - WIND CHILL INDEX
HX  - HEAT INDEX



USA.gov is the U.S. government's official web portal to all federal, state and local government web resources and services.